Location: Ocean City
(38.3360°N, 75.0850°W)
Time: 05:04:42
(UTC-05:00)

Explorer 11/Cluster Stage 4 - Pass Details

Date: 22 November 2019
Orbit: 467 x 1259 km, 28.8° (Epoch: 15 December)

Event Time Altitude Azimuth Distance (km) Brightness Sun altitude
Rises 17:37:09 0° 217° (SW) 2,711 10.3 -10.6°
Reaches altitude 10° 17:40:04 10° 193° (SSW) 1,939 9.0 -11.2°
Maximum altitude 17:42:43 15° 157° (SSE) 1,729 8.3 -11.7°
Drops below altitude 10° 17:45:40 10° 121° (ESE) 2,209 8.5 -12.2°
Enters shadow 17:46:23 - 116° (ESE) 2,401 8.6 -12.4°
Sets 17:49:21 0° 101° (E) 3,328 - -12.9°
